Location: Unspecified
(52.4292°N, 19.3359°E)
Time: 14:49:50
(UTC+02:00)

deb Explorer IX - Visible Passes

Search period start: 19 May 2024 00:00
Search period end: 29 May 2024 00:00
Orbit: 513 x 892 km, 38.7° (Epoch: 19 May)

Date Brightness Start Highest point End Pass type
(mag) Time Alt. Az. Time Alt. Az. Time Alt. Az.
23 May ? 22:07:53 10° S 22:09:20 11° SSE 22:09:21 11° SSE visible
24 May ? 22:49:51 10° SSW 22:51:32 14° S 22:51:32 14° S visible
25 May ? 21:49:42 10° SSW 21:52:15 14° S 21:54:32 10° SE visible
25 May ? 23:32:58 10° SW 23:33:19 11° SW 23:33:19 11° SW visible
26 May ? 22:32:18 10° SW 22:35:09 15° S 22:36:02 15° S visible
27 May ? 21:31:45 10° SW 21:34:52 16° S 21:37:49 10° SE visible
27 May ? 23:15:43 10° SW 23:17:18 13° SSW 23:17:18 13° SSW visible
28 May ? 22:14:37 10° SW 22:17:36 16° S 22:19:38 12° SSE visible
